Weather in Georgiyevka

Russia / Krasnoyarsk Krai     56°30′52″N   95°24′58″E
temp.,
°C
wind,
m/s
gust,
m/s
humid.,
%
clouds,
%
prec.,
mm/h
press.,
hPa
HPBL,
m
18 april, sun
sun1801:00−11sw22895 0.0 102615
04:00−10s34895 0.0 102560
07:00−8sse3687100 0.0 1023185
10:00−4sse5772100 0.0 1020558
13:00−1ssw6872100 0.0 1017956
16:000ssw479586 0.4 1016649
19:00−1ssw338034 0.6 101544
22:00−2s4886100 0.0 1014120
19 april, mon
mon1901:00−1s51087100 0.0 1011217
04:00−1sse51283100 0.0 1007252
07:00−1se71498100 2.8 999582
10:00+3sw81598100 4.2 994567
13:00+1wsw915100100 8.3 9951000
16:00−4w13197899 0.4 10041414
19:00−6w101874100 0.4 10121356
22:00−8w81476100 0.1 10151145
20 april, tue
tue2001:00−9w7127795 0.1 1016756
04:00−10wsw6117980 0.0 1018846
07:00−10wsw712769 0.1 10191288
10:00−7w91259100 0.1 10191861
13:00−5w101364100 0.1 10182012
16:00−3w91266100 0.1 10191656
19:00−4w6117587 0.1 1020843
22:00−7w598517 0.0 1022329
21 april, wed
wed2101:00−8w488955 0.0 1022255
04:00−8wsw4889100 0.0 1023229
07:00−7w488761 0.0 1024339
10:00−3wnw5762100 0.1 10251362
13:00−2wnw5559100 0.1 10251396
16:00−1nw3452100 0.1 10261378
19:00−2nw116788 0.3 102815
22:00−4n22785 0.1 102931
22 april, thu
thu2201:00−5n22835 0.1 103131
04:00−6nnw228612 0.0 103230
07:00−5nnw22785 0.0 103480
10:00−1nne23634 0.0 1035614
13:000ene33597 0.0 10361102
16:00+2ene235321 0.0 1037932
19:00+1nne22654 0.1 103841
22:00−1ne34702 0.0 104160